StationID,Date,MaxTemp,MinTemp,Precipitation,Snowfall,SnowDepth
"USC00503670","1952-03-18",,,,,356.00
"USC00503670","1952-03-19",30.92,17.06,0.00,0.00,356.00
"USC00503670","1952-03-20",30.92,15.98,20.00,30.00,381.00
"USC00503670","1952-03-21",41.00,24.98,43.00,51.00,381.00
"USC00503670","1952-03-22",39.02,28.94,3.00,3.00,356.00
"USC00503670","1952-03-23",41.00,30.02,0.00,0.00,356.00
"USC00503670","1952-03-24",44.06,28.94,0.00,0.00,330.00
"USC00503670","1952-03-25",35.06,28.94,0.00,0.00,330.00
"USC00503670","1952-03-26",37.94,28.04,0.00,0.00,330.00
"USC00503670","1952-03-27",30.02,8.06,43.00,102.00,406.00
"USC00503670","1952-03-28",14.00,6.98,25.00,81.00,483.00
"USC00503670","1952-03-29",17.06,5.00,13.00,33.00,508.00
"USC00503670","1952-03-30",21.02,6.08,0.00,0.00,508.00
"USC00503670","1952-03-31",17.06,6.08,8.00,15.00,483.00
"USC00503670","1952-04-01",37.04,12.92,0.00,0.00,483.00
"USC00503670","1952-04-02",33.98,17.96,0.00,0.00,457.00
"USC00503670","1952-04-03",30.92,15.08,0.00,0.00,457.00
"USC00503670","1952-04-04",33.08,14.00,0.00,0.00,457.00
"USC00503670","1952-04-05",39.92,19.04,0.00,0.00,432.00
"USC00503670","1952-04-06",37.04,23.00,0.00,0.00,406.00
"USC00503670","1952-04-07",37.94,28.94,3.00,0.00,381.00
"USC00503670","1952-04-08",37.04,30.92,0.00,0.00,330.00
"USC00503670","1952-04-09",39.92,30.02,147.00,69.00,356.00
"USC00503670","1952-04-10",44.96,26.06,0.00,0.00,330.00
"USC00503670","1952-04-11",44.06,26.06,0.00,0.00,305.00
"USC00503670","1952-04-12",44.96,26.96,0.00,0.00,305.00
"USC00503670","1952-04-13",39.02,30.02,0.00,0.00,279.00
"USC00503670","1952-04-14",42.98,28.94,0.00,0.00,279.00
"USC00503670","1952-04-15",41.00,24.98,5.00,8.00,254.00
"USC00503670","1952-04-16",33.98,26.96,132.00,127.00,356.00
"USC00503670","1952-04-17",37.04,26.96,25.00,33.00,381.00
"USC00503670","1952-04-18",42.98,24.08,3.00,3.00,330.00
"USC00503670","1952-04-19",37.94,26.06,0.00,0.00,330.00
"USC00503670","1952-04-20",39.92,30.02,0.00,0.00,305.00
"USC00503670","1952-04-21",42.08,28.94,10.00,8.00,305.00
"USC00503670","1952-04-22",35.06,28.94,28.00,15.00,279.00
"USC00503670","1952-04-23",39.92,24.98,15.00,25.00,279.00
"USC00503670","1952-04-24",33.08,26.96,5.00,0.00,254.00
"USC00503670","1952-04-25",42.08,30.02,0.00,0.00,254.00
"USC00503670","1952-04-26",37.94,32.00,20.00,0.00,229.00
"USC00503670","1952-04-27",35.06,26.06,0.00,0.00,203.00
"USC00503670","1952-04-28",35.96,24.08,0.00,0.00,178.00
"USC00503670","1952-04-29",42.98,26.96,0.00,0.00,152.00
"USC00503670","1952-04-30",37.04,24.98,0.00,0.00,152.00
"USC00503670","1952-05-01",39.92,26.96,0.00,0.00,127.00
"USC00503670","1952-05-02",41.00,28.94,0.00,0.00,127.00
"USC00503670","1952-05-03",41.00,28.94,0.00,0.00,102.00
"USC00503670","1952-05-04",35.96,26.06,0.00,0.00,102.00
"USC00503670","1952-05-05",33.98,30.02,0.00,0.00,76.00
"USC00503670","1952-05-06",35.06,28.04,0.00,0.00,76.00
"USC00503670","1952-05-07",37.04,28.94,0.00,0.00,51.00
"USC00503670","1952-05-08",44.96,28.04,0.00,0.00,0.00
"USC00503670","1952-05-09",42.98,28.94,0.00,0.00,0.00
"USC00503670","1952-05-10",46.04,30.92,0.00,0.00,0.00
"USC00503670","1952-05-11",46.94,28.94,0.00,0.00,0.00
"USC00503670","1952-05-12",39.92,24.98,0.00,0.00,0.00
"USC00503670","1952-05-13",37.04,30.02,127.00,64.00,76.00
"USC00503670","1952-05-14",42.98,28.04,0.00,0.00,0.00
"USC00503670","1952-05-15",39.92,33.08,0.00,0.00,0.00
"USC00503670","1952-05-16",44.96,35.06,0.00,0.00,0.00
"USC00503670","1952-05-17",42.98,37.94,28.00,0.00,0.00
"USC00503670","1952-05-18",42.98,37.04,30.00,0.00,0.00
"USC00503670","1952-05-19",42.98,33.98,10.00,0.00,0.00
"USC00503670","1952-05-20",42.08,32.00,0.00,0.00,0.00
"USC00503670","1952-05-21",42.98,33.98,0.00,0.00,0.00
"USC00503670","1952-05-22",42.98,33.98,0.00,0.00,0.00
"USC00503670","1952-05-23",44.06,33.08,0.00,0.00,0.00
"USC00503670","1952-05-24",44.96,37.04,0.00,0.00,0.00
"USC00503670","1952-05-25",44.06,33.08,0.00,0.00,0.00
"USC00503670","1952-05-26",46.04,35.06,15.00,0.00,0.00
"USC00503670","1952-05-27",50.00,39.02,3.00,0.00,0.00
"USC00503670","1952-05-28",46.04,35.06,0.00,0.00,0.00
"USC00503670","1952-05-29",50.00,35.06,15.00,0.00,0.00
"USC00503670","1952-05-30",48.92,35.96,3.00,0.00,0.00
"USC00503670","1952-05-31",46.94,35.96,0.00,0.00,0.00
"USC00503670","1952-06-01",44.96,33.98,0.00,0.00,0.00
"USC00503670","1952-06-02",50.00,35.96,8.00,0.00,0.00
"USC00503670","1952-06-03",44.96,35.06,5.00,0.00,0.00
"USC00503670","1952-06-04",42.98,32.00,0.00,0.00,0.00
"USC00503670","1952-06-05",44.06,35.06,0.00,0.00,0.00
"USC00503670","1952-06-06",44.96,35.06,0.00,0.00,0.00
"USC00503670","1952-06-07",48.92,37.94,0.00,0.00,0.00
"USC00503670","1952-06-08",42.98,37.94,48.00,0.00,0.00
"USC00503670","1952-06-09",55.04,35.06,0.00,0.00,0.00
"USC00503670","1952-06-10",55.94,37.94,15.00,0.00,0.00
"USC00503670","1952-06-11",48.92,37.94,10.00,0.00,0.00
"USC00503670","1952-06-12",60.08,39.92,0.00,0.00,0.00
"USC00503670","1952-06-13",55.04,39.02,0.00,0.00,0.00
"USC00503670","1952-06-14",57.92,39.02,0.00,0.00,0.00
"USC00503670","1952-06-15",57.92,46.04,0.00,0.00,0.00
"USC00503670","1952-06-16",59.00,39.92,0.00,0.00,0.00
"USC00503670","1952-06-17",48.02,39.02,0.00,0.00,0.00
"USC00503670","1952-06-18",50.00,37.04,0.00,0.00,0.00
"USC00503670","1952-06-19",57.02,42.98,0.00,0.00,0.00
"USC00503670","1952-06-20",55.94,41.00,0.00,0.00,0.00
"USC00503670","1952-06-21",57.02,39.92,0.00,0.00,0.00
"USC00503670","1952-06-22",57.02,39.92,0.00,0.00,0.00
"USC00503670","1952-06-23",51.08,41.00,38.00,0.00,0.00
"USC00503670","1952-06-24",51.08,42.08,0.00,0.00,0.00
"USC00503670","1952-06-25",57.02,41.00,0.00,0.00,0.00
"USC00503670","1952-06-26",64.94,42.08,0.00,0.00,0.00
"USC00503670","1952-06-27",64.94,50.00,0.00,0.00,0.00
"USC00503670","1952-06-28",51.08,42.08,28.00,0.00,0.00
"USC00503670","1952-06-29",55.04,37.94,0.00,0.00,0.00
"USC00503670","1952-06-30",51.08,44.06,13.00,0.00,0.00
"USC00503670","1952-07-01",53.06,42.08,5.00,0.00,0.00
"USC00503670","1952-07-02",53.96,39.92,0.00,0.00,0.00
"USC00503670","1952-07-03",51.08,42.08,0.00,0.00,0.00
"USC00503670","1952-07-04",59.00,44.96,0.00,0.00,0.00
"USC00503670","1952-07-05",50.00,42.08,20.00,0.00,0.00
"USC00503670","1952-07-06",53.06,42.08,30.00,0.00,0.00
"USC00503670","1952-07-07",48.02,42.98,71.00,0.00,0.00
"USC00503670","1952-07-08",51.08,42.98,13.00,0.00,0.00
"USC00503670","1952-07-09",51.98,42.08,23.00,0.00,0.00
"USC00503670","1952-07-10",55.94,44.06,163.00,0.00,0.00
"USC00503670","1952-07-11",60.08,46.94,33.00,0.00,0.00
"USC00503670","1952-07-12",59.00,50.00,48.00,0.00,0.00
"USC00503670","1952-07-13",55.04,46.94,10.00,0.00,0.00
"USC00503670","1952-07-14",53.96,41.00,0.00,0.00,0.00
"USC00503670","1952-07-15",50.00,42.98,0.00,0.00,0.00
"USC00503670","1952-07-16",48.02,42.08,15.00,0.00,0.00
"USC00503670","1952-07-17",53.96,42.08,18.00,0.00,0.00
"USC00503670","1952-07-18",55.04,42.98,74.00,0.00,0.00
"USC00503670","1952-07-19",69.98,46.04,0.00,0.00,0.00
"USC00503670","1952-07-20",68.00,55.94,0.00,0.00,0.00
"USC00503670","1952-07-21",69.98,55.94,0.00,0.00,0.00
"USC00503670","1952-07-22",64.94,53.96,0.00,0.00,0.00
"USC00503670","1952-07-23",60.08,48.92,0.00,0.00,0.00
"USC00503670","1952-07-24",66.92,46.94,0.00,0.00,0.00
"USC00503670","1952-07-25",60.08,48.02,0.00,0.00,0.00
"USC00503670","1952-07-26",66.02,48.92,0.00,0.00,0.00
"USC00503670","1952-07-27",66.92,51.08,0.00,0.00,0.00
"USC00503670","1952-07-28",60.08,48.02,99.00,0.00,0.00
"USC00503670","1952-07-29",53.96,44.96,0.00,0.00,0.00
"USC00503670","1952-07-30",53.06,44.06,282.00,0.00,0.00
"USC00503670","1952-07-31",59.00,46.94,18.00,0.00,0.00
"USC00503670","1952-08-01",60.08,46.94,0.00,0.00,0.00
"USC00503670","1952-08-02",60.08,42.98,0.00,0.00,0.00
"USC00503670","1952-08-03",62.06,48.92,0.00,0.00,0.00
"USC00503670","1952-08-04",62.06,51.98,0.00,0.00,0.00
"USC00503670","1952-08-05",59.00,50.00,28.00,0.00,0.00
"USC00503670","1952-08-06",57.92,51.98,61.00,0.00,0.00
"USC00503670","1952-08-07",55.94,48.92,152.00,0.00,0.00
"USC00503670","1952-08-08",,,,0.00,0.00
"USC00503670","1952-08-09",62.06,46.04,,0.00,0.00
"USC00503670","1952-08-10",60.08,48.02,13.00,0.00,0.00
"USC00503670","1952-08-11",66.02,46.04,0.00,0.00,0.00
"USC00503670","1952-08-12",64.94,50.00,0.00,0.00,0.00
"USC00503670","1952-08-13",66.92,46.04,0.00,0.00,0.00
"USC00503670","1952-08-14",64.04,51.98,0.00,0.00,0.00
"USC00503670","1952-08-15",64.94,48.92,0.00,0.00,0.00
"USC00503670","1952-08-16",60.08,44.06,0.00,0.00,0.00
"USC00503670","1952-08-17",53.96,44.96,0.00,0.00,0.00
"USC00503670","1952-08-18",53.96,44.96,5.00,0.00,0.00
"USC00503670","1952-08-19",57.02,46.04,0.00,0.00,0.00
"USC00503670","1952-08-20",57.02,42.98,48.00,0.00,0.00
"USC00503670","1952-08-21",57.02,46.94,0.00,0.00,0.00
"USC00503670","1952-08-22",62.06,42.98,0.00,0.00,0.00
"USC00503670","1952-08-23",60.98,42.98,0.00,0.00,0.00
"USC00503670","1952-08-24",57.02,46.94,0.00,0.00,0.00
"USC00503670","1952-08-25",51.98,46.94,38.00,0.00,0.00
"USC00503670","1952-08-26",53.96,46.04,0.00,0.00,0.00
"USC00503670","1952-08-27",53.96,44.96,5.00,0.00,0.00
"USC00503670","1952-08-28",55.04,42.98,0.00,0.00,0.00
"USC00503670","1952-08-29",51.98,44.96,74.00,0.00,0.00
"USC00503670","1952-08-30",51.08,44.96,46.00,0.00,0.00
"USC00503670","1952-08-31",50.00,44.96,107.00,0.00,0.00
"USC00503670","1952-09-01",53.06,42.98,18.00,0.00,0.00
"USC00503670","1952-09-02",51.98,42.08,0.00,0.00,0.00
"USC00503670","1952-09-03",55.04,42.08,0.00,0.00,0.00
"USC00503670","1952-09-04",55.94,35.06,0.00,0.00,0.00
"USC00503670","1952-09-05",53.96,35.06,0.00,0.00,0.00
"USC00503670","1952-09-06",50.00,33.08,0.00,0.00,0.00
"USC00503670","1952-09-07",55.04,32.00,0.00,0.00,0.00
"USC00503670","1952-09-08",46.94,41.00,69.00,0.00,0.00
"USC00503670","1952-09-09",48.02,41.00,10.00,0.00,0.00
"USC00503670","1952-09-10",51.98,41.00,18.00,0.00,0.00
"USC00503670","1952-09-11",55.04,39.92,0.00,0.00,0.00
"USC00503670","1952-09-12",53.06,41.00,0.00,0.00,0.00
"USC00503670","1952-09-13",46.94,41.00,104.00,0.00,0.00
"USC00503670","1952-09-14",48.92,42.08,28.00,0.00,0.00
"USC00503670","1952-09-15",53.96,39.02,0.00,0.00,0.00
"USC00503670","1952-09-16",53.06,39.02,3.00,0.00,0.00
"USC00503670","1952-09-17",51.98,39.02,0.00,0.00,0.00
"USC00503670","1952-09-18",51.98,39.92,0.00,0.00,0.00
"USC00503670","1952-09-19",46.94,42.08,81.00,0.00,0.00
"USC00503670","1952-09-20",46.04,42.08,10.00,0.00,0.00
"USC00503670","1952-09-21",50.00,39.92,122.00,0.00,0.00
"USC00503670","1952-09-22",51.08,42.98,33.00,0.00,0.00
"USC00503670","1952-09-23",57.02,44.96,5.00,0.00,0.00
"USC00503670","1952-09-24",60.98,46.04,0.00,0.00,0.00
"USC00503670","1952-09-25",59.00,48.02,30.00,0.00,0.00
"USC00503670","1952-09-26",53.96,46.04,13.00,0.00,0.00
"USC00503670","1952-09-27",51.98,44.06,13.00,0.00,0.00
"USC00503670","1952-09-28",50.00,41.00,36.00,0.00,0.00
"USC00503670","1952-09-29",53.96,41.00,0.00,0.00,0.00
"USC00503670","1952-09-30",51.98,41.00,10.00,0.00,0.00
"USC00503670","1952-10-01",50.00,39.02,0.00,0.00,0.00
"USC00503670","1952-10-02",48.92,39.02,8.00,0.00,0.00
"USC00503670","1952-10-03",48.92,44.96,152.00,0.00,0.00
"USC00503670","1952-10-04",55.04,44.06,152.00,0.00,0.00
"USC00503670","1952-10-05",46.04,42.98,53.00,0.00,0.00
"USC00503670","1952-10-06",46.94,42.08,81.00,0.00,0.00
"USC00503670","1952-10-07",42.98,39.02,81.00,0.00,0.00
"USC00503670","1952-10-08",44.96,35.96,74.00,0.00,0.00
"USC00503670","1952-10-09",48.02,35.96,28.00,0.00,0.00
"USC00503670","1952-10-10",46.94,39.92,8.00,0.00,0.00
"USC00503670","1952-10-11",44.96,39.02,10.00,0.00,0.00
"USC00503670","1952-10-12",46.94,41.00,0.00,0.00,0.00
"USC00503670","1952-10-13",44.96,41.00,28.00,0.00,0.00
"USC00503670","1952-10-14",46.94,41.00,25.00,0.00,0.00
"USC00503670","1952-10-15",42.98,35.06,20.00,0.00,0.00
"USC00503670","1952-10-16",42.98,33.98,0.00,0.00,0.00
"USC00503670","1952-10-17",44.06,32.00,0.00,0.00,0.00
"USC00503670","1952-10-18",41.00,28.04,0.00,0.00,0.00
"USC00503670","1952-10-19",39.92,24.98,0.00,0.00,0.00
"USC00503670","1952-10-20",41.00,30.92,0.00,0.00,0.00
"USC00503670","1952-10-21",37.04,32.00,30.00,0.00,0.00
"USC00503670","1952-10-22",33.98,28.94,76.00,58.00,51.00
"USC00503670","1952-10-23",42.08,28.04,0.00,0.00,51.00
"USC00503670","1952-10-24",41.00,26.96,0.00,0.00,51.00
"USC00503670","1952-10-25",41.00,33.08,160.00,0.00,0.00
"USC00503670","1952-10-26",35.06,30.02,89.00,38.00,51.00
"USC00503670","1952-10-27",41.00,26.06,0.00,0.00,25.00
"USC00503670","1952-10-28",42.98,33.98,74.00,0.00,0.00
"USC00503670","1952-10-29",41.00,35.06,0.00,0.00,0.00
"USC00503670","1952-10-30",44.06,35.06,5.00,0.00,0.00
"USC00503670","1952-10-31",39.02,32.00,168.00,56.00,51.00
"USC00503670","1952-11-01",37.94,32.00,18.00,43.00,51.00
"USC00503670","1952-11-02",33.98,30.92,10.00,10.00,51.00
"USC00503670","1952-11-03",35.96,28.04,0.00,0.00,51.00
"USC00503670","1952-11-04",42.98,35.06,36.00,0.00,0.00
"USC00503670","1952-11-05",44.06,39.02,0.00,0.00,0.00
"USC00503670","1952-11-06",42.98,35.96,0.00,0.00,0.00
"USC00503670","1952-11-07",39.92,33.98,224.00,0.00,0.00
"USC00503670","1952-11-08",41.00,33.08,64.00,0.00,0.00
"USC00503670","1952-11-09",39.02,32.00,203.00,25.00,25.00
"USC00503670","1952-11-10",39.02,33.08,180.00,0.00,0.00
"USC00503670","1952-11-11",35.96,30.92,23.00,25.00,25.00
"USC00503670","1952-11-12",37.04,30.02,114.00,102.00,127.00
"USC00503670","1952-11-13",37.04,28.04,0.00,0.00,102.00
"USC00503670","1952-11-14",35.96,24.98,0.00,0.00,102.00
"USC00503670","1952-11-15",35.96,30.92,127.00,127.00,229.00
"USC00503670","1952-11-16",35.96,28.94,0.00,0.00,203.00
"USC00503670","1952-11-17",33.08,26.96,130.00,127.00,254.00
"USC00503670","1952-11-18",30.02,24.08,41.00,58.00,305.00
"USC00503670","1952-11-19",35.96,26.06,0.00,0.00,254.00
"USC00503670","1952-11-20",41.00,33.98,107.00,0.00,127.00
"USC00503670","1952-11-21",39.92,32.00,64.00,0.00,51.00
"USC00503670","1952-11-22",42.98,33.98,15.00,0.00,25.00
"USC00503670","1952-11-23",44.06,32.00,533.00,0.00,0.00
"USC00503670","1952-11-24",37.94,33.98,180.00,0.00,0.00
"USC00503670","1952-11-25",37.94,33.08,0.00,0.00,0.00
"USC00503670","1952-11-26",37.94,30.92,0.00,0.00,0.00
"USC00503670","1952-11-27",41.00,32.00,10.00,0.00,0.00
"USC00503670","1952-11-28",35.06,24.98,0.00,0.00,0.00
"USC00503670","1952-11-29",35.96,23.00,0.00,0.00,0.00
"USC00503670","1952-11-30",28.04,8.96,0.00,0.00,0.00
"USC00503670","1952-12-01",12.92,6.08,0.00,0.00,0.00
"USC00503670","1952-12-02",10.04,1.04,0.00,0.00,0.00
"USC00503670","1952-12-03",17.96,6.08,0.00,0.00,0.00
"USC00503670","1952-12-04",33.08,15.08,0.00,0.00,0.00
"USC00503670","1952-12-05",33.08,28.94,43.00,127.00,127.00
"USC00503670","1952-12-06",30.02,24.98,53.00,76.00,178.00
"USC00503670","1952-12-07",28.04,19.04,0.00,0.00,152.00
"USC00503670","1952-12-08",26.06,17.96,0.00,0.00,127.00
"USC00503670","1952-12-09",24.08,17.06,0.00,0.00,127.00
"USC00503670","1952-12-10",28.04,19.04,0.00,0.00,127.00
"USC00503670","1952-12-11",24.98,19.94,13.00,20.00,127.00
"USC00503670","1952-12-12",24.08,17.96,0.00,0.00,127.00
"USC00503670","1952-12-13",21.92,10.94,0.00,0.00,127.00
"USC00503670","1952-12-14",19.94,12.02,15.00,25.00,152.00
"USC00503670","1952-12-15",21.02,15.08,76.00,89.00,229.00
"USC00503670","1952-12-16",21.92,15.08,18.00,25.00,254.00
"USC00503670","1952-12-17",39.02,21.92,399.00,305.00,203.00
"USC00503670","1952-12-18",39.92,33.98,10.00,0.00,127.00
"USC00503670","1952-12-19",39.02,26.96,0.00,0.00,127.00
"USC00503670","1952-12-20",35.06,28.04,140.00,76.00,178.00
"USC00503670","1952-12-21",35.96,30.02,41.00,51.00,229.00
"USC00503670","1952-12-22",33.98,26.96,91.00,64.00,279.00
"USC00503670","1952-12-23",37.04,32.00,76.00,0.00,279.00
"USC00503670","1952-12-24",37.94,32.00,135.00,,330.00
"USC00503670","1952-12-25",37.04,32.00,48.00,0.00,330.00
"USC00503670","1952-12-26",35.06,30.02,36.00,38.00,356.00
"USC00503670","1952-12-27",30.92,24.98,13.00,15.00,381.00
"USC00503670","1952-12-28",28.94,21.92,0.00,0.00,381.00
"USC00503670","1952-12-29",28.94,21.92,0.00,0.00,356.00
"USC00503670","1952-12-30",28.94,17.96,0.00,0.00,330.00
"USC00503670","1952-12-31",26.96,17.06,0.00,0.00,305.00
"USC00503670","1953-01-01",32.00,21.92,56.00,76.00,356.00
"USC00503670","1953-01-02",28.04,15.08,0.00,0.00,330.00
"USC00503670","1953-01-03",39.02,17.06,0.00,0.00,305.00
"USC00503670","1953-01-04",46.04,33.98,0.00,0.00,229.00
"USC00503670","1953-01-05",46.94,35.06,168.00,0.00,76.00
"USC00503670","1953-01-06",42.98,35.96,0.00,0.00,76.00
"USC00503670","1953-01-07",39.02,19.94,0.00,0.00,76.00
"USC00503670","1953-01-08",19.94,12.02,0.00,0.00,76.00
"USC00503670","1953-01-09",12.92,6.08,0.00,0.00,76.00
"USC00503670","1953-01-10",24.08,8.06,0.00,0.00,76.00
"USC00503670","1953-01-11",23.00,10.94,0.00,0.00,76.00
"USC00503670","1953-01-12",15.08,6.08,0.00,0.00,76.00
"USC00503670","1953-01-13",23.00,6.08,0.00,0.00,76.00
"USC00503670","1953-01-14",28.04,19.04,0.00,0.00,76.00
"USC00503670","1953-01-15",28.04,23.00,0.00,0.00,76.00
"USC00503670","1953-01-16",30.02,21.02,0.00,0.00,76.00
"USC00503670","1953-01-17",30.92,21.02,0.00,0.00,76.00
"USC00503670","1953-01-18",33.08,26.06,15.00,33.00,102.00
"USC00503670","1953-01-19",33.98,28.94,25.00,20.00,127.00
"USC00503670","1953-01-20",33.08,28.94,46.00,38.00,178.00
"USC00503670","1953-01-21",30.02,23.00,0.00,0.00,178.00
"USC00503670","1953-01-22",24.98,5.00,0.00,0.00,178.00
"USC00503670","1953-01-23",6.08,-4.00,0.00,0.00,178.00
"USC00503670","1953-01-24",19.04,-5.08,0.00,0.00,178.00
"USC00503670","1953-01-25",19.04,-4.00,0.00,0.00,178.00
"USC00503670","1953-01-26",3.02,-7.96,0.00,0.00,178.00
"USC00503670","1953-01-27",10.94,-5.98,0.00,0.00,178.00
"USC00503670","1953-01-28",17.06,1.94,0.00,0.00,178.00
"USC00503670","1953-01-29",15.08,1.04,0.00,0.00,178.00
"USC00503670","1953-01-30",12.02,-0.94,0.00,0.00,178.00
"USC00503670","1953-01-31",17.96,6.08,0.00,0.00,178.00
"USC00503670","1953-02-01",15.98,6.98,0.00,0.00,178.00
"USC00503670","1953-02-02",30.02,10.04,8.00,8.00,178.00
"USC00503670","1953-02-03",32.00,10.04,46.00,64.00,254.00
"USC00503670","1953-02-04",10.94,-2.02,0.00,0.00,254.00
"USC00503670","1953-02-05",8.96,-2.92,0.00,0.00,254.00
"USC00503670","1953-02-06",15.98,1.94,0.00,0.00,254.00
"USC00503670","1953-02-07",26.96,6.08,33.00,76.00,330.00
"USC00503670","1953-02-08",35.96,15.98,137.00,152.00,381.00
"USC00503670","1953-02-09",17.06,-0.04,36.00,25.00,406.00
"USC00503670","1953-02-10",33.98,14.00,66.00,64.00,457.00
"USC00503670","1953-02-11",37.04,30.02,41.00,15.00,483.00
"USC00503670","1953-02-12",35.96,28.04,48.00,38.00,533.00
"USC00503670","1953-02-13",33.98,26.96,104.00,102.00,635.00
"USC00503670","1953-02-14",33.98,26.06,0.00,0.00,635.00
"USC00503670","1953-02-15",33.08,26.96,0.00,0.00,635.00
"USC00503670","1953-02-16",35.96,21.92,0.00,0.00,635.00
"USC00503670","1953-02-17",37.04,19.04,0.00,0.00,635.00
"USC00503670","1953-02-18",33.98,28.94,25.00,43.00,660.00
"USC00503670","1953-02-19",32.00,28.94,127.00,140.00,762.00
"USC00503670","1953-02-20",35.06,30.02,178.00,127.00,813.00
"USC00503670","1953-02-21",32.00,24.08,0.00,0.00,787.00
"USC00503670","1953-02-22",37.04,23.00,109.00,152.00,889.00
"USC00503670","1953-02-23",37.94,28.94,0.00,0.00,889.00
"USC00503670","1953-02-24",37.94,30.92,13.00,0.00,813.00
"USC00503670","1953-02-25",35.96,28.94,25.00,0.00,787.00
"USC00503670","1953-02-26",28.94,19.04,18.00,18.00,813.00
"USC00503670","1953-02-27",28.04,17.96,58.00,109.00,914.00
"USC00503670","1953-02-28",35.96,24.08,20.00,0.00,762.00
"USC00503670","1953-03-01",35.96,26.96,0.00,0.00,737.00
"USC00503670","1953-03-02",30.02,19.94,0.00,0.00,711.00
"USC00503670","1953-03-03",24.98,12.92,0.00,0.00,711.00
"USC00503670","1953-03-04",26.96,10.04,5.00,5.00,711.00
"USC00503670","1953-03-05",30.02,14.00,0.00,0.00,711.00
"USC00503670","1953-03-06",32.00,17.06,3.00,0.00,711.00
"USC00503670","1953-03-07",30.02,12.02,0.00,0.00,711.00
"USC00503670","1953-03-08",24.98,8.96,0.00,0.00,711.00
"USC00503670","1953-03-09",28.94,8.06,0.00,0.00,711.00
"USC00503670","1953-03-10",24.08,8.06,0.00,0.00,711.00
"USC00503670","1953-03-11",28.04,8.06,0.00,0.00,711.00
"USC00503670","1953-03-12",30.02,10.94,0.00,0.00,711.00
"USC00503670","1953-03-13",33.08,24.08,0.00,0.00,686.00
"USC00503670","1953-03-14",35.96,24.98,0.00,0.00,686.00
"USC00503670","1953-03-15",37.94,30.92,13.00,25.00,686.00
"USC00503670","1953-03-16",33.08,21.92,86.00,102.00,787.00
"USC00503670","1953-03-17",32.00,19.94,0.00,0.00,737.00
"USC00503670","1953-03-18",35.06,21.02,0.00,0.00,737.00
"USC00503670","1953-03-19",33.98,19.94,0.00,0.00,711.00
"USC00503670","1953-03-20",44.06,23.00,0.00,0.00,660.00
"USC00503670","1953-03-21",37.94,28.94,0.00,0.00,635.00
"USC00503670","1953-03-22",44.96,28.04,0.00,0.00,584.00
"USC00503670","1953-03-23",41.00,26.06,0.00,0.00,559.00
"USC00503670","1953-03-24",44.06,17.96,0.00,0.00,533.00
"USC00503670","1953-03-25",42.98,21.92,0.00,0.00,533.00
"USC00503670","1953-03-26",37.04,21.02,0.00,0.00,533.00
"USC00503670","1953-03-27",28.04,19.94,38.00,66.00,584.00
"USC00503670","1953-03-28",28.94,14.00,0.00,0.00,584.00
"USC00503670","1953-03-29",37.94,26.96,0.00,0.00,559.00
"USC00503670","1953-03-30",28.94,19.94,0.00,0.00,559.00
"USC00503670","1953-03-31",28.94,17.06,0.00,0.00,
"USC00503670","1953-04-01",33.98,28.04,86.00,76.00,610.00
"USC00503670","1953-04-02",35.96,28.04,5.00,5.00,584.00
"USC00503670","1953-04-03",35.06,28.94,0.00,0.00,559.00
"USC00503670","1953-04-04",41.00,24.98,0.00,0.00,533.00
"USC00503670","1953-04-05",30.92,24.08,0.00,0.00,508.00
"USC00503670","1953-04-06",37.94,21.02,0.00,0.00,508.00
"USC00503670","1953-04-07",41.00,21.92,0.00,0.00,483.00
"USC00503670","1953-04-08",46.04,26.06,0.00,0.00,432.00
"USC00503670","1953-04-09",48.02,30.02,0.00,0.00,381.00
"USC00503670","1953-04-10",51.98,35.06,0.00,0.00,330.00
"USC00503670","1953-04-11",51.98,39.02,0.00,0.00,279.00
"USC00503670","1953-04-12",55.04,37.04,0.00,0.00,229.00
"USC00503670","1953-04-13",51.98,37.94,0.00,0.00,178.00
"USC00503670","1953-04-14",37.94,17.96,0.00,0.00,178.00
"USC00503670","1953-04-15",35.96,15.98,0.00,0.00,178.00
"USC00503670","1953-04-16",42.08,32.00,8.00,8.00,178.00
"USC00503670","1953-04-17",42.08,32.00,140.00,0.00,152.00
"USC00503670","1953-04-18",41.00,33.08,13.00,0.00,127.00
"USC00503670","1953-04-19",39.02,32.00,5.00,0.00,102.00
"USC00503670","1953-04-20",39.92,32.00,0.00,0.00,76.00
"USC00503670","1953-04-21",41.00,32.00,0.00,0.00,76.00
"USC00503670","1953-04-22",42.08,33.08,58.00,51.00,127.00
"USC00503670","1953-04-23",44.06,32.00,0.00,0.00,102.00
"USC00503670","1953-04-24",39.92,33.08,0.00,0.00,102.00
"USC00503670","1953-04-25",39.92,33.08,0.00,0.00,76.00
"USC00503670","1953-04-26",46.04,35.96,0.00,0.00,51.00
"USC00503670","1953-04-27",48.92,35.06,0.00,0.00,25.00
"USC00503670","1953-04-28",48.92,41.00,0.00,0.00,0.00
"USC00503670","1953-04-29",46.04,35.96,0.00,0.00,0.00
"USC00503670","1953-04-30",46.04,32.00,0.00,0.00,0.00
"USC00503670","1953-05-01",44.06,33.08,0.00,0.00,0.00
"USC00503670","1953-05-02",46.94,33.98,0.00,0.00,0.00
"USC00503670","1953-05-03",51.08,35.06,0.00,0.00,0.00
"USC00503670","1953-05-04",46.94,37.94,0.00,0.00,0.00
"USC00503670","1953-05-05",44.06,33.98,0.00,0.00,0.00
"USC00503670","1953-05-06",46.04,33.98,0.00,0.00,0.00
"USC00503670","1953-05-07",42.08,32.00,5.00,0.00,0.00
"USC00503670","1953-05-08",42.98,30.92,5.00,0.00,0.00
"USC00503670","1953-05-09",48.02,33.08,0.00,0.00,0.00
"USC00503670","1953-05-10",48.02,30.92,5.00,0.00,0.00
"USC00503670","1953-05-11",46.04,32.00,0.00,0.00,0.00
"USC00503670","1953-05-12",42.98,37.04,15.00,0.00,0.00
"USC00503670","1953-05-13",39.92,35.96,66.00,0.00,0.00
"USC00503670","1953-05-14",42.08,35.06,89.00,0.00,0.00
"USC00503670","1953-05-15",46.94,35.96,0.00,0.00,0.00